Theta_e
307 308 308 308 307 305 310 316 308 320 321 309 311 307 309 303 307 308 307 308 307 305 305 303 302 301 308 310 309 305 310 309 302 302 308 309 307 304 304 297 298 302 296 294
307 307 307 307 307 306 305 310 311 320 318 303 306 310 307 307 306 306 306 306 308 309 305 302 305 305 312 309 307 307 310 305 297 298 303 307 304 306 307 307 308 300 295 297
306 307 307 308 307 306 306 311 305 312 313 312 308 308 305 303 307 306 308 308 310 307 305 307 304 304 311 309 307 312 310 304 299 294 298 302 301 302 302 306 299 299 299 301
306 306 307 308 306 305 308 313 308 309 304 306 306 307 307 304 303 306 307 305 306 306 303 303 303 306 307 308 309 306 307 300 302 302 303 304 302 302 303 301 301 298 300 301
305 306 307 307 306 305 311 305 305 307 306 307 305 301 303 303 304 304 303 303 306 307 303 305 303 306 306 305 307 305 310 301 302 298 301 301 298 300 300 300 300 299 299 299
305 305 306 307 307 306 309 311 312 307 305 305 303 304 304 304 305 305 305 304 304 304 304 305 307 308 308 307 305 305 305 302 299 295 300 299 295 300 301 302 303 302 298 303
304 304 305 306 307 306 308 310 307 303 301 304 304 304 302 302 303 302 304 303 302 304 308 307 306 305 304 303 303 307 301 301 299 294 297 288 300 306 305 303 304 306 306 307
304 304 305 306 306 307 304 311 307 304 300 304 304 304 302 303 304 301 302 304 305 307 303 297 295 296 297 298 301 302 307 301 296 292 292 297 299 303 303 302 302 307 313 315
304 303 304 305 306 306 305 311 311 305 301 302 303 301 302 299 301 302 303 306 307 303 297 294 289 289 295 295 299 305 305 305 297 294 290 287 299 305 312 311 299 315 315 313
304 303 303 305 305 306 304 307 312 304 300 305 305 300 299 303 301 299 302 302 300 303 295 291 291 291 297 292 293 297 297 299 293 292 290 294 303 305 312 294 299 312 312 310
304 303 302 304 304 304 303 307 312 303 301 303 305 304 300 301 300 296 302 299 299 297 293 293 293 293 295 295 298 297 296 296 295 295 292 288 309 309 302 310 312 310 309 309
304 304 302 303 303 303 303 302 309 308 299 301 304 305 306 304 303 300 302 300 300 301 296 296 297 294 296 297 291 303 295 300 298 298 297 311 310 310 315 315 312 310 310 310
304 304 302 303 303 304 302 303 306 303 299 299 300 300 305 306 304 307 297 300 304 303 305 297 296 292 296 291 294 297 302 307 301 300 303 307 312 312 313 310 307 312 310 309
304 304 302 303 303 304 304 303 305 303 299 293 299 306 303 305 305 304 304 303 304 305 302 297 294 291 297 292 295 294 296 299 297 297 302 304 307 309 310 311 310 310 311 308
303 303 303 304 304 304 304 305 306 306 298 293 296 302 303 303 303 302 302 302 301 297 295 294 291 294 294 294 295 292 296 296 293 294 302 301 301 306 305 303 304 305 305 304
303 304 303 303 303 303 303 298 304 306 304 295 290 301 300 302 302 302 300 300 300 298 295 294 295 298 294 289 289 296 298 301 302 299 303 303 303 304 303 302 304 304 305 305
303 302 302 302 302 301 297 294 300 303 305 295 291 292 299 301 301 300 300 301 298 297 295 293 293 294 295 292 289 296 297 299 301 302 302 299 300 301 304 305 306 306 305 306
302 302 303 303 303 302 299 303 301 301 299 297 290 290 295 302 295 294 300 297 297 297 295 296 293 295 295 290 296 297 299 300 300 300 301 301 302 303 303 305 305 304 302 304
303 303 303 303 299 297 301 304 302 303 299 292 291 288 288 300 296 297 296 298 291 297 294 294 295 293 289 293 296 297 299 299 299 300 300 299 299 299 301 302 303 302 302 304
303 301 297 293 300 304 303 299 295 295 296 295 290 294 289 295 294 293 293 294 291 288 292 296 293 291 298 300 300 301 300 300 299 296 295 299 298 298 299 300 302 303 303 304
300 297 295 303 304 300 296 291 291 292 288 292 293 293 291 297 290 290 294 291 291 286 289 289 288 289 296 299 299 301 300 303 301 301 302 301 301 301 300 300 302 303 303 304
300 300 302 301 296 292 288 289 291 290 287 293 292 293 295 295 298 293 293 289 290 283 293 289 286 292 298 299 299 297 299 303 303 302 301 301 301 302 302 304 304 305 306 307
302 297 293 293 292 284 283 282 285 286 291 293 294 294 296 297 298 294 292 286 286 293 288 287 290 297 299 301 301 300 302 302 303 302 302 302 301 303 304 303 305 306 307 309
295 290 283 287 284 286 288 288 289 294 295 295 296 296 295 297 292 292 286 290 291 285 284 286 295 298 300 301 301 302 301 301 300 300 301 302 302 302 304 305 306 306 306 308
291 292 283 286 290 290 293 294 293 296 296 296 296 296 295 291 288 290 289 286 284 286 287 293 296 298 298 300 301 301 301 301 300 302 300 301 302 300 301 303 305 306 307 309
293 292 288 291 289 291 292 293 293 296 296 298 298 292 289 287 289 286 285 284 283 289 294 297 298 297 299 302 302 302 302 302 302 302 302 300 300 299 299 302 304 306 308 310
291 290 294 293 291 291 294 295 296 298 296 291 293 286 286 292 286 285 289 287 291 295 297 300 302 302 302 302 301 302 302 302 301 300 300 299 300 301 300 302 305 309 310 310
Wind_Speed
16 18 20 23 24 33 11 6 6 6 2 7 8 12 12 1 2 2 6 5 10 8 4 6 9 6 11 6 4 8 9 5 10 17 22 18 16 7 11 8 5 4 6 13
15 16 19 21 21 18 9 7 9 6 3 7 8 5 5 2 3 8 4 5 5 2 5 3 10 7 11 7 5 7 11 3 8 11 14 10 10 12 16 5 5 11 11 9
13 15 18 21 22 15 7 6 5 6 5 6 7 11 5 7 1 10 4 10 3 6 8 9 5 6 9 7 5 7 4 5 9 12 20 17 16 4 15 14 7 12 14 18
12 15 17 21 24 22 5 6 2 4 5 7 9 7 10 10 6 7 3 7 10 9 9 12 12 12 5 9 13 4 4 8 13 16 20 21 21 19 15 18 16 16 17 20
9 13 15 19 23 30 5 5 5 8 10 6 8 4 8 11 12 1 6 9 12 6 6 9 12 14 8 4 9 6 7 8 9 14 17 19 22 22 21 20 20 21 20 22
7 10 14 17 21 21 5 7 7 5 8 7 7 10 9 9 5 5 4 9 9 10 5 8 9 7 8 9 8 9 8 8 9 16 16 18 19 17 22 22 20 20 19 17
4 7 10 14 16 15 7 5 6 6 8 10 9 7 3 5 5 9 3 1 7 8 8 10 11 12 14 14 15 12 11 11 10 13 14 20 13 15 18 21 20 11 14 7
3 5 8 11 13 15 8 7 5 6 9 11 15 9 6 9 6 6 8 9 8 6 7 6 9 11 13 20 21 19 14 12 10 13 14 18 22 15 15 13 14 10 8 11
5 2 5 8 11 14 8 5 3 6 6 5 10 12 7 7 9 9 10 8 9 3 5 9 13 8 10 8 14 19 16 15 11 11 15 18 13 17 11 20 13 10 8 8
7 2 3 5 8 12 8 4 2 5 8 10 9 6 6 8 6 8 9 7 5 5 5 10 12 15 15 16 19 7 12 13 17 13 14 13 14 20 7 6 5 12 8 6
8 5 3 3 6 9 8 4 3 5 6 12 9 8 8 8 4 6 4 4 6 6 9 9 11 11 12 15 17 17 15 10 12 15 19 20 12 15 9 6 6 4 3 8
9 6 3 3 4 7 8 6 4 3 6 8 13 10 8 10 11 7 6 8 6 2 5 5 6 11 11 14 14 12 12 12 7 3 9 7 7 7 12 14 4 4 1 5
9 7 5 4 4 6 6 7 5 4 8 11 13 16 15 11 9 8 6 6 8 6 9 6 5 9 8 11 12 12 14 12 12 9 12 12 6 4 3 6 15 16 4 6
9 8 6 4 4 6 6 7 5 4 6 6 3 6 5 4 6 10 10 13 8 6 6 7 8 11 9 12 14 14 12 14 13 16 16 13 10 13 12 8 9 8 13 11
10 7 7 7 7 7 8 7 6 1 5 6 6 10 6 6 6 8 8 8 8 7 9 9 11 12 12 12 13 15 13 13 11 13 13 11 14 15 15 14 14 16 14 14
8 8 5 4 3 4 7 5 1 3 3 5 5 4 2 10 11 7 10 10 8 9 9 9 11 14 10 10 14 20 15 13 13 16 17 16 18 16 19 17 16 17 16 15
9 7 5 4 4 6 2 2 2 9 5 4 5 5 9 6 7 9 8 9 7 8 10 11 13 13 11 13 18 19 19 19 18 19 19 19 21 16 17 16 15 13 16 15
8 6 5 4 3 8 5 7 6 6 5 4 5 5 7 11 7 8 9 9 11 11 11 11 11 12 12 17 20 22 22 22 22 22 21 21 21 21 21 18 18 18 18 16
8 6 5 5 4 3 2 8 2 3 3 4 4 8 5 7 8 7 7 9 11 10 12 13 13 13 15 20 21 23 22 21 21 22 21 20 20 22 22 21 21 21 18 16
8 7 4 4 2 14 8 4 4 3 4 5 7 10 11 11 8 7 8 8 9 12 12 10 13 12 18 21 22 20 21 20 13 21 20 26 21 19 19 23 19 16 15 15
4 4 0 7 9 5 3 5 6 5 5 7 8 11 9 8 10 9 2 5 6 7 13 14 14 13 16 6 5 9 16 23 5 5 10 10 21 20 16 19 22 16 15 14
5 4 3 4 4 3 5 4 5 6 7 7 9 5 5 2 5 4 5 5 4 8 9 12 16 12 13 2 2 2 10 19 8 10 14 13 15 11 19 19 14 14 12 11
6 5 3 3 3 3 7 8 5 6 6 3 2 3 3 3 5 3 3 5 8 9 13 17 15 7 6 1 7 6 11 12 13 16 14 13 18 18 21 16 15 17 14 14
3 4 3 5 6 7 8 11 6 4 9 6 1 3 2 2 2 4 5 7 6 6 12 17 8 10 11 7 7 7 11 11 13 17 15 21 17 12 17 15 13 15 15 15
4 4 5 10 10 8 5 9 8 8 8 12 4 1 3 4 4 5 7 6 7 7 9 5 6 9 9 17 9 11 8 11 12 14 12 15 15 12 14 17 15 14 16 18
4 6 9 9 5 7 7 7 8 7 8 2 2 3 3 7 5 6 9 9 17 13 6 4 7 10 14 11 10 12 16 16 12 10 11 10 11 13 14 15 16 17 18 18
6 6 8 9 8 10 11 3 9 3 10 7 2 4 8 3 6 5 5 11 13 10 10 9 10 11 12 13 15 15 12 12 13 15 14 12 12 12 13 15 16 16 16 13
Wind_Direction
345 342 339 339 347 338 336 292 270 113 267 246 230 242 341 55 95 206 273 291 309 306 325 295 284 297 63 54 358 305 13 339 302 297 308 312 301 263 270 290 272 112 143 278
342 340 338 339 350 4 319 288 295 135 246 255 255 168 207 326 249 270 258 249 262 289 279 252 258 296 100 44 22 32 352 267 281 276 254 285 284 325 331 281 325 274 270 265
339 340 340 338 339 348 307 275 283 178 208 278 291 320 252 191 141 308 320 302 344 271 249 256 266 255 143 112 72 58 345 280 279 284 304 311 300 102 298 270 280 290 284 305
338 343 344 339 334 335 284 250 17 28 309 54 339 344 311 303 176 206 240 265 249 260 262 267 246 224 213 171 151 185 235 268 275 277 284 292 291 289 288 285 281 274 284 286
339 343 346 341 338 333 247 324 352 355 294 280 286 261 269 264 265 180 233 230 289 263 269 290 307 350 333 312 141 188 222 259 282 280 281 283 283 285 284 279 277 277 281 280
331 343 349 348 351 340 318 18 313 279 299 270 254 256 264 252 309 318 329 328 313 270 19 352 332 335 323 317 319 291 270 252 274 271 281 282 269 264 266 267 269 269 266 273
302 337 349 353 355 3 312 4 305 281 280 279 274 301 324 284 280 276 294 139 292 32 339 310 275 269 269 265 253 246 256 257 258 268 277 267 267 274 280 272 270 303 290 290
257 328 343 349 349 354 316 319 301 289 277 279 284 277 242 281 256 244 270 291 64 14 312 293 265 248 251 247 241 231 218 238 259 251 253 269 273 271 279 279 267 265 335 47
221 272 338 345 343 350 311 343 325 282 297 250 356 319 314 289 269 253 227 212 87 28 276 257 246 254 281 254 220 211 207 206 235 252 259 260 278 267 344 355 238 70 58 56
210 201 316 354 346 344 325 318 23 272 279 281 302 276 319 324 266 277 312 151 167 170 240 248 252 254 253 255 264 189 201 212 218 230 247 271 286 301 99 87 280 70 71 63
197 199 243 310 336 340 330 331 73 297 284 288 318 292 276 268 262 278 42 259 177 222 242 264 259 262 261 264 263 266 258 219 229 229 239 250 6 318 300 60 100 120 93 75
192 200 226 265 307 329 340 266 160 271 260 282 322 301 295 295 306 315 293 282 305 308 288 244 300 283 283 270 265 262 257 264 272 140 272 344 334 348 357 343 316 206 94 56
188 198 213 250 289 302 321 311 345 275 259 268 243 231 227 217 248 264 258 260 348 287 349 317 304 284 304 286 280 296 275 273 265 299 269 283 233 355 348 35 335 301 66 352
194 194 208 230 261 296 301 289 313 285 292 285 202 94 176 186 226 234 241 277 306 301 285 268 274 276 281 277 290 290 287 308 302 285 288 283 198 229 256 199 231 273 303 319
178 190 211 223 250 269 281 266 274 269 292 311 324 324 227 180 206 223 229 237 251 256 249 241 248 259 271 275 280 271 272 275 272 281 304 325 307 318 323 312 312 312 314 302
172 171 166 177 242 283 251 217 123 26 297 278 286 9 194 178 213 239 244 238 233 246 259 257 267 277 275 275 270 273 282 286 285 283 292 292 289 284 286 285 286 287 289 288
166 168 176 202 243 260 350 26 333 332 298 258 274 249 175 226 210 222 236 233 238 246 251 251 257 257 257 263 263 276 272 273 272 278 292 290 287 290 293 296 288 286 287 283
163 171 189 198 252 276 251 189 232 288 280 286 272 264 203 173 207 226 201 224 216 218 236 244 254 260 251 252 261 268 267 266 268 268 268 269 271 273 275 278 282 280 276 276
156 159 170 189 233 228 106 113 166 231 281 293 268 268 324 160 238 254 259 228 241 243 239 243 244 243 246 256 258 259 264 271 271 271 270 268 273 284 258 253 250 253 256 260
162 200 193 204 130 113 134 161 185 199 217 227 262 279 275 291 291 273 268 248 250 261 259 261 254 266 274 267 259 255 255 256 278 279 281 280 256 251 262 280 266 249 253 257
206 226 275 93 143 208 200 222 210 181 226 212 235 233 266 253 260 273 291 294 283 262 271 270 265 266 265 18 21 14 12 317 294 351 309 333 309 316 281 249 261 260 262 261
321 293 230 160 205 205 239 218 209 196 238 198 227 195 235 354 340 326 350 306 276 260 261 265 264 270 268 197 321 75 334 288 300 310 308 304 283 286 277 273 279 287 288 282
243 231 217 180 189 227 232 211 201 232 243 279 263 85 4 11 40 9 274 247 247 254 258 260 262 23 50 204 248 257 248 291 319 314 305 274 240 277 282 282 270 274 267 273
244 213 253 229 216 218 233 258 278 295 338 331 279 135 123 161 228 257 239 242 272 256 248 265 54 10 339 298 298 308 284 289 288 287 286 293 284 290 299 293 274 278 276 270
259 223 238 220 236 247 208 266 275 179 206 239 150 172 194 204 241 218 266 257 240 251 283 11 2 320 291 287 290 288 277 269 266 274 272 265 277 289 280 277 275 272 266 260
248 238 259 274 196 268 303 313 267 250 224 214 149 270 217 222 230 215 229 260 265 281 355 283 231 236 259 306 300 302 301 293 282 279 285 279 269 270 271 264 259 257 252 250
230 241 231 263 288 219 251 256 259 106 265 266 188 225 233 221 231 247 260 270 286 298 292 309 309 316 313 309 307 301 307 310 309 302 293 276 268 266 267 256 248 249 248 252